STARLINK-32459, 61715

Orbit data source: Space-Track

STARLINK-32459, 61715 is a payload satellite owned by SpaceX/Seattle (US) in LEO that was launched on Wed, 30 Oct 2024 UTC via an FALCON 9 launch vehicle from the Air Force Eastern Test Range (AFETR). Payload-class satellites include a variety of spacecraft equipped with specific instruments for various scientific and technological missions. These include communications satellites like Starlink; space stations such as the ISS; scientific satellites like the Hubble; Earth observation satellites from companies like Planet Labs, Umbra, and HawkEye 360; GPS; miniature CubeSats for education and research; and military/defense satellites.

Loading next visibility...
Identifier
61715, 2024-196J
Orbit
LEO
Last TLE update
9 hours ago
Origin
Manufacturer
SpaceX/Seattle
Mission
Operational Commercial Communications
Bus & Motor
STARLINK V2M, Unknown motor
Mass
730 kg wet, ~700 kg dry
Launch date (UTC)
2024-10-30 (8 months ago)
Launch vehicle
FALCON 9
Launch site
Air Force Eastern Test Range (AFETR)
Object type
Payload
Rocket body
Debris
Shape & HBR
Box + 2 Pan, 29 m
Radar Cross Section
36.964 m², Large (>1 m²)

Expand to show TLE details & history

TLE from 9 hours ago
0 STARLINK-32459
1 61715U 24196J   25192.12619135 -.00000762  00000-0 -13591-4 0  9999
2 61715  53.1596 143.2712 0001282  85.8652 274.2495 15.30195183 40089
Epoch: 2025-07-11T03:01Z
TLE epoch observation values (Epoch: 2025-07-11T03:01:42.932Z)
Latitude
-0.00005°
Longitude
168.55968°
Altitude
476.064 km
Speed
7.629 km/s
True Right ascension
09h 33m 05s
True Declination
0° 00' 00"
Sunlit
Object was in daylight at epoch
Visualization orbit readout
Latitude
-23.75075°
Longitude
6.00349°
Altitude
482.536 km
Speed
7.624 km/s
Apparent Right ascension
19h 41m 24s
Apparent Declination
-70° 31' 09"
Sunlit
Object is in full shadow
Visualization observer readout
Local Sidereal Time
00:04:53
Azimuth
200.581° SSW
Elevation
-30.025°
Doppler factor
1
Orbital elements
Apogee altitude
476.365 km
Perigee altitude
474.607 km
Semi-major axis
6,853.623 km
Eccentricity
0.00013
Inclination
53.1596°
RAAN
143.2712°
Arg. of periapsis
85.8652°
True anomaly
Unknown
Mean anomaly
274.2495°
Eccentric anomaly
Unknown
Mean motion
3.82528 °/min
Orbital period
94.11 mins
BSTAR
-0.000013591
Loading maneuver chart data...
Loading SW <> Apogee altitude chart data...
Loading historical data...
Loading historical data...
Loading historical data...
Loading historical data...
Loading historical data...
Loading historical data...
Loading historical data...

STARLINK-32459 Visibility forecast

Observer location: undefined°, undefined°

Span
Click to sort rows by Start time (UTC) header in descending order
Start Az.
Max El. time (UTC)
Max El. Az.
Max El.
End time (UTC)
End Az.
5 mins2025-07-11 23:36:48.070Z237.298° WSW2025-07-11 23:38:48.070Z11.176° NNE43.651°2025-07-11 23:41:48.070Z47.446° ENE
5 mins2025-07-12 04:32:48.070Z338.408° N2025-07-12 04:34:48.070Z12.107° NNE16.787°2025-07-12 04:37:48.070Z66.281° ENE
5 mins2025-07-12 06:11:48.070Z312.35° NW2025-07-12 06:13:48.070Z107.426° ESE44.472°2025-07-12 06:16:48.070Z129.192° SE
|